Time,TemperatureF,DewpointF,PressureIn,WindDirection,WindDirectionDegrees,WindSpeedMPH,WindSpeedGustMPH,Humidity,HourlyPrecipIn,Conditions,Clouds,dailyrainin,SoftwareType,DateUTC
2013-04-28 00:29:00,46.9,35.0,30.15,NE,45,0.0,0.0,63,0.00,,FEW,0.00,WeatherDisplay:10.37,2013-04-27 23:29:00,
2013-04-28 00:59:00,46.9,35.0,30.14,NE,45,0.0,0.0,63,0.00,,FEW,0.00,WeatherDisplay:10.37,2013-04-27 23:59:00,
2013-04-28 01:29:00,47.1,34.8,30.12,NE,45,0.0,1.0,62,0.00,,FEW,0.00,WeatherDisplay:10.37,2013-04-28 00:29:00,
2013-04-28 01:59:00,46.9,33.8,30.11,NE,45,0.0,2.0,60,0.00,,FEW,0.00,WeatherDisplay:10.37,2013-04-28 00:59:00,
2013-04-28 02:30:00,46.6,33.4,30.10,NE,45,0.0,2.0,60,0.00,,FEW,0.00,WeatherDisplay:10.37,2013-04-28 01:30:00,
2013-04-28 03:00:00,46.2,33.9,30.08,NE,45,0.0,2.0,62,0.00,,FEW,0.00,WeatherDisplay:10.37,2013-04-28 02:00:00,
2013-04-28 03:30:00,46.2,34.7,30.06,NE,45,0.0,2.0,64,0.00,,FEW,0.00,WeatherDisplay:10.37,2013-04-28 02:30:00,
2013-04-28 04:00:00,46.0,34.5,30.04,NE,45,0.0,3.0,64,0.00,,FEW,0.00,WeatherDisplay:10.37,2013-04-28 03:00:00,
2013-04-28 04:30:00,46.0,34.9,30.03,NE,45,0.0,13.0,65,0.00,,FEW,0.00,WeatherDisplay:10.37,2013-04-28 03:30:00,
2013-04-28 05:00:00,46.0,35.3,30.02,NE,45,0.0,8.0,66,0.00,,FEW,0.00,WeatherDisplay:10.37,2013-04-28 04:00:00,
2013-04-28 05:30:00,46.2,35.9,30.01,NE,45,0.0,0.0,67,0.00,,FEW,0.00,WeatherDisplay:10.37,2013-04-28 04:30:00,
2013-04-28 06:00:00,46.0,36.8,30.00,NE,45,0.0,18.0,70,0.00,,FEW,0.00,WeatherDisplay:10.37,2013-04-28 05:00:00,
2013-04-28 06:29:00,45.9,37.3,30.00,NE,45,0.0,2.0,72,0.00,,FEW,0.00,WeatherDisplay:10.37,2013-04-28 05:29:00,
2013-04-28 07:00:00,45.9,38.0,30.00,NE,45,0.0,3.0,74,0.00,,FEW,0.00,WeatherDisplay:10.37,2013-04-28 06:00:00,
2013-04-28 07:29:00,45.9,38.8,30.00,NE,45,0.0,9.0,76,0.00,,FEW,0.00,WeatherDisplay:10.37,2013-04-28 06:29:00,
2013-04-28 08:00:00,46.6,40.1,29.98,NE,45,0.0,1.0,78,0.00,,FEW,0.00,WeatherDisplay:10.37,2013-04-28 07:00:00,
2013-04-28 08:29:00,47.8,41.3,29.98,NE,45,0.0,0.0,78,0.00,,FEW,0.00,WeatherDisplay:10.37,2013-04-28 07:29:00,
2013-04-28 08:59:00,49.0,42.1,29.96,NE,45,0.0,6.0,77,0.00,,FEW,0.00,WeatherDisplay:10.37,2013-04-28 07:59:00,
2013-04-28 09:29:00,50.2,43.2,29.95,NE,45,0.0,7.0,77,0.00,,FEW,0.00,WeatherDisplay:10.37,2013-04-28 08:29:00,
2013-04-28 09:59:00,50.2,43.2,29.94,NE,45,0.0,8.0,77,0.00,,FEW,0.00,WeatherDisplay:10.37,2013-04-28 08:59:00,
2013-04-28 10:29:00,51.3,44.0,29.93,SW,225,0.0,12.0,76,0.00,,FEW,0.00,WeatherDisplay:10.37,2013-04-28 09:29:00,
2013-04-28 10:59:00,52.0,43.9,29.93,NE,45,0.0,13.0,74,0.00,,FEW,0.00,WeatherDisplay:10.37,2013-04-28 09:59:00,
2013-04-28 11:30:00,50.7,44.1,29.94,NE,45,0.0,16.0,78,0.00,,FEW,0.00,WeatherDisplay:10.37,2013-04-28 10:30:00,
2013-04-28 12:00:00,51.3,44.6,29.93,SW,225,0.0,3.0,78,0.00,,FEW,0.00,WeatherDisplay:10.37,2013-04-28 11:00:00,
2013-04-28 12:30:00,51.1,44.8,29.92,NE,45,0.0,2.0,79,0.00,,FEW,0.00,WeatherDisplay:10.37,2013-04-28 11:30:00,
2013-04-28 13:00:00,53.0,44.6,29.92,NE,45,0.0,7.0,73,0.00,,FEW,0.00,WeatherDisplay:10.37,2013-04-28 12:00:00,
2013-04-28 13:30:00,53.2,40.1,29.91,NE,45,0.0,13.0,61,0.00,,FEW,0.00,WeatherDisplay:10.37,2013-04-28 12:30:00,
2013-04-28 14:00:00,53.8,39.8,29.90,NE,45,0.0,7.0,59,0.00,,FEW,0.00,WeatherDisplay:10.37,2013-04-28 13:00:00,
2013-04-28 14:30:00,56.1,41.1,29.89,NE,45,0.0,9.0,57,0.00,,FEW,0.00,WeatherDisplay:10.37,2013-04-28 13:30:00,
2013-04-28 15:00:00,56.5,38.1,29.89,NE,45,0.0,12.0,50,0.00,,FEW,0.00,WeatherDisplay:10.37,2013-04-28 14:00:00,
2013-04-28 15:30:00,57.0,38.5,29.88,NE,45,0.0,12.0,50,0.00,,FEW,0.00,WeatherDisplay:10.37,2013-04-28 14:30:00,
2013-04-28 16:00:00,56.2,37.8,29.88,NE,45,2.0,20.0,50,0.00,,FEW,0.00,WeatherDisplay:10.37,2013-04-28 15:00:00,
2013-04-28 16:29:00,54.9,39.0,29.88,NE,45,0.0,17.0,55,0.00,,FEW,0.00,WeatherDisplay:10.37,2013-04-28 15:29:00,
2013-04-28 17:00:00,54.7,38.8,29.87,NE,45,0.0,14.0,55,0.00,,FEW,0.00,WeatherDisplay:10.37,2013-04-28 16:00:00,
2013-04-28 17:29:00,50.9,39.1,29.88,NE,45,0.0,12.0,64,0.00,,FEW,0.00,WeatherDisplay:10.37,2013-04-28 16:29:00,
2013-04-28 17:59:00,51.4,38.8,29.88,NE,45,0.0,14.0,62,0.00,,FEW,0.00,WeatherDisplay:10.37,2013-04-28 16:59:00,
2013-04-28 18:29:00,52.7,38.3,29.87,NE,45,0.0,5.0,58,0.00,,FEW,0.00,WeatherDisplay:10.37,2013-04-28 17:29:00,
2013-04-28 18:59:00,52.0,37.7,29.87,NE,45,0.0,11.0,58,0.00,,FEW,0.00,WeatherDisplay:10.37,2013-04-28 17:59:00,
2013-04-28 19:29:00,50.9,35.3,29.87,NE,45,0.0,9.0,55,0.00,,FEW,0.00,WeatherDisplay:10.37,2013-04-28 18:29:00,
2013-04-28 19:59:00,50.0,34.5,29.88,NE,45,0.0,11.0,55,0.00,,FEW,0.00,WeatherDisplay:10.37,2013-04-28 18:59:00,
2013-04-28 20:29:00,45.5,35.2,29.90,NE,45,0.0,17.0,67,0.00,,FEW,0.00,WeatherDisplay:10.37,2013-04-28 19:29:00,
2013-04-28 20:59:00,45.1,35.6,29.90,NE,45,0.0,5.0,69,0.00,,FEW,0.00,WeatherDisplay:10.37,2013-04-28 19:59:00,
2013-04-28 21:30:00,45.1,35.9,29.92,NE,45,0.0,12.0,70,0.00,,FEW,0.00,WeatherDisplay:10.37,2013-04-28 20:30:00,
2013-04-28 22:00:00,43.9,35.8,29.92,NE,45,0.0,4.0,73,0.00,,FEW,0.00,WeatherDisplay:10.37,2013-04-28 21:00:00,
2013-04-28 22:30:00,44.2,35.8,29.92,NE,45,0.0,6.0,72,0.00,,FEW,0.00,WeatherDisplay:10.37,2013-04-28 21:30:00,
2013-04-28 23:00:00,43.7,35.3,29.93,NE,45,0.0,5.0,72,0.00,,FEW,0.00,WeatherDisplay:10.37,2013-04-28 22:00:00,
2013-04-28 23:30:00,43.3,34.9,29.93,NE,45,0.0,5.0,72,0.00,,FEW,0.00,WeatherDisplay:10.37,2013-04-28 22:30:00,